Time,TemperatureF,DewpointF,PressureIn,WindDirection,WindDirectionDegrees,WindSpeedMPH,WindSpeedGustMPH,Humidity,HourlyPrecipIn,Conditions,Clouds,dailyrainin,SoftwareType,DateUTC
2013-09-24 00:00:00,50.7,50.2,29.91,NW,315,0.0,-999.0,98,-99.99,,,0.00,Acu-Link.com,2013-09-24 04:00:00,
2013-09-24 00:15:00,51.4,50.9,29.91,NW,315,0.0,-999.0,98,-99.99,,,0.00,Acu-Link.com,2013-09-24 04:15:00,
2013-09-24 00:31:00,51.1,50.6,29.91,NW,315,0.0,-999.0,98,-99.99,,,0.00,Acu-Link.com,2013-09-24 04:31:00,
2013-09-24 00:46:00,50.5,50.0,29.91,NW,315,0.0,-999.0,98,-99.99,,,0.00,Acu-Link.com,2013-09-24 04:46:00,
2013-09-24 01:01:00,51.1,50.6,29.91,NW,315,0.0,-999.0,98,-99.99,,,0.00,Acu-Link.com,2013-09-24 05:01:00,
2013-09-24 01:16:00,50.9,50.4,29.91,NW,315,0.0,-999.0,98,-99.99,,,0.00,Acu-Link.com,2013-09-24 05:16:00,
2013-09-24 01:32:00,51.1,50.6,29.91,NW,315,0.0,-999.0,98,-99.99,,,0.00,Acu-Link.com,2013-09-24 05:32:00,
2013-09-24 01:47:00,50.9,50.4,29.92,NW,315,0.0,-999.0,98,-99.99,,,0.00,Acu-Link.com,2013-09-24 05:47:00,
2013-09-24 02:02:00,50.7,50.2,29.91,NW,315,0.0,-999.0,98,-99.99,,,0.00,Acu-Link.com,2013-09-24 06:02:00,
2013-09-24 02:17:00,50.4,49.9,29.91,NW,315,0.0,-999.0,98,-99.99,,,0.00,Acu-Link.com,2013-09-24 06:17:00,
2013-09-24 02:32:00,50.2,49.7,29.91,NW,315,0.0,-999.0,98,-99.99,,,0.00,Acu-Link.com,2013-09-24 06:32:00,
2013-09-24 02:48:00,50.2,49.7,29.91,NW,315,0.0,-999.0,98,-99.99,,,0.00,Acu-Link.com,2013-09-24 06:48:00,
2013-09-24 03:03:00,50.4,49.9,29.91,NW,315,0.0,-999.0,98,-99.99,,,0.00,Acu-Link.com,2013-09-24 07:03:00,
2013-09-24 03:18:00,49.5,49.0,29.91,NW,315,0.0,-999.0,98,-99.99,,,0.00,Acu-Link.com,2013-09-24 07:18:00,
2013-09-24 03:34:00,50.0,49.5,29.91,NW,315,1.7,-999.0,98,-99.99,,,0.00,Acu-Link.com,2013-09-24 07:34:00,
2013-09-24 03:49:00,49.8,49.3,29.91,NW,315,0.0,-999.0,98,-99.99,,,0.00,Acu-Link.com,2013-09-24 07:49:00,
2013-09-24 04:05:00,49.6,49.1,29.91,NW,315,0.0,-999.0,98,-99.99,,,0.00,Acu-Link.com,2013-09-24 08:05:00,
2013-09-24 04:20:00,49.5,49.0,29.91,NW,315,0.0,-999.0,98,-99.99,,,0.00,Acu-Link.com,2013-09-24 08:20:00,
2013-09-24 04:35:00,49.5,49.0,29.91,NW,315,0.0,-999.0,98,-99.99,,,0.00,Acu-Link.com,2013-09-24 08:35:00,
2013-09-24 04:51:00,49.5,49.0,29.92,NW,315,0.0,-999.0,98,-99.99,,,0.00,Acu-Link.com,2013-09-24 08:51:00,
2013-09-24 05:06:00,48.7,48.2,29.91,NW,315,0.0,-999.0,98,-99.99,,,0.00,Acu-Link.com,2013-09-24 09:06:00,
2013-09-24 05:21:00,48.6,48.1,29.91,NW,315,0.0,-999.0,98,-99.99,,,0.00,Acu-Link.com,2013-09-24 09:21:00,
2013-09-24 05:36:00,48.6,48.1,29.91,NW,315,0.0,-999.0,98,-99.99,,,0.00,Acu-Link.com,2013-09-24 09:36:00,
2013-09-24 05:51:00,49.1,48.6,29.91,NW,315,0.0,-999.0,98,-99.99,,,0.00,Acu-Link.com,2013-09-24 09:51:00,
2013-09-24 06:06:00,49.1,48.6,29.92,NW,315,2.2,-999.0,98,-99.99,,,0.00,Acu-Link.com,2013-09-24 10:06:00,
2013-09-24 06:22:00,48.9,48.4,29.93,NW,315,0.0,-999.0,98,-99.99,,,0.00,Acu-Link.com,2013-09-24 10:22:00,
2013-09-24 06:37:00,48.7,48.2,29.92,NW,315,0.0,-999.0,98,-99.99,,,0.00,Acu-Link.com,2013-09-24 10:37:00,
2013-09-24 06:52:00,48.9,48.4,29.93,NW,315,2.2,-999.0,98,-99.99,,,0.00,Acu-Link.com,2013-09-24 10:52:00,
2013-09-24 07:08:00,49.1,48.6,29.93,NW,315,0.0,-999.0,98,-99.99,,,0.00,Acu-Link.com,2013-09-24 11:08:00,
2013-09-24 07:23:00,48.6,48.1,29.93,NW,315,0.0,-999.0,98,-99.99,,,0.00,Acu-Link.com,2013-09-24 11:23:00,
2013-09-24 07:38:00,48.7,48.2,29.93,NW,315,0.0,-999.0,98,-99.99,,,0.00,Acu-Link.com,2013-09-24 11:38:00,
2013-09-24 07:54:00,49.3,48.8,29.94,NW,315,0.0,-999.0,98,-99.99,,,0.00,Acu-Link.com,2013-09-24 11:54:00,
2013-09-24 08:09:00,50.0,49.5,29.93,NW,315,0.0,-999.0,98,-99.99,,,0.00,Acu-Link.com,2013-09-24 12:09:00,
2013-09-24 08:24:00,51.3,50.8,29.94,NW,315,0.0,-999.0,98,-99.99,,,0.00,Acu-Link.com,2013-09-24 12:24:00,
2013-09-24 08:39:00,52.0,51.5,29.94,NW,315,0.0,-999.0,98,-99.99,,,0.00,Acu-Link.com,2013-09-24 12:39:00,
2013-09-24 08:55:00,53.2,52.6,29.94,NW,315,0.0,-999.0,98,-99.99,,,0.00,Acu-Link.com,2013-09-24 12:55:00,
2013-09-24 09:10:00,54.1,53.5,29.93,SSW,202,0.0,-999.0,98,-99.99,,,0.00,Acu-Link.com,2013-09-24 13:10:00,
2013-09-24 09:25:00,54.7,54.1,29.93,WNW,292,1.1,-999.0,98,-99.99,,,0.00,Acu-Link.com,2013-09-24 13:25:00,
2013-09-24 09:40:00,55.9,55.3,29.93,NNW,337,1.7,-999.0,98,-99.99,,,0.00,Acu-Link.com,2013-09-24 13:40:00,
2013-09-24 09:56:00,57.4,56.8,29.93,WNW,292,2.2,-999.0,98,-99.99,,,0.00,Acu-Link.com,2013-09-24 13:56:00,
2013-09-24 10:11:00,58.6,58.0,29.93,West,270,2.7,-999.0,98,-99.99,,,0.00,Acu-Link.com,2013-09-24 14:11:00,
2013-09-24 10:26:00,59.9,59.3,29.93,SW,225,1.7,-999.0,98,-99.99,,,0.00,Acu-Link.com,2013-09-24 14:26:00,
2013-09-24 10:42:00,61.5,60.9,29.92,SW,225,2.7,-999.0,98,-99.99,,,0.00,Acu-Link.com,2013-09-24 14:42:00,
2013-09-24 10:57:00,63.0,62.4,29.93,SW,225,2.7,-999.0,98,-99.99,,,0.00,Acu-Link.com,2013-09-24 14:57:00,
2013-09-24 11:12:00,63.7,63.1,29.92,ENE,67,1.1,-999.0,98,-99.99,,,0.00,Acu-Link.com,2013-09-24 15:12:00,
2013-09-24 11:27:00,65.5,64.9,29.93,NE,45,1.7,-999.0,98,-99.99,,,0.00,Acu-Link.com,2013-09-24 15:27:00,
2013-09-24 11:42:00,68.0,67.4,29.92,NNW,337,1.7,-999.0,98,-99.99,,,0.00,Acu-Link.com,2013-09-24 15:42:00,
2013-09-24 11:58:00,68.5,67.9,29.91,West,270,1.1,-999.0,98,-99.99,,,0.00,Acu-Link.com,2013-09-24 15:58:00,
2013-09-24 12:13:00,68.9,68.3,29.90,WSW,247,2.7,-999.0,98,-99.99,,,0.00,Acu-Link.com,2013-09-24 16:13:00,
2013-09-24 12:28:00,69.3,68.7,29.90,NNW,337,1.7,-999.0,98,-99.99,,,0.00,Acu-Link.com,2013-09-24 16:28:00,
2013-09-24 12:44:00,69.8,69.2,29.89,West,270,2.2,-999.0,98,-99.99,,,0.00,Acu-Link.com,2013-09-24 16:44:00,
2013-09-24 12:59:00,69.6,69.0,29.88,ESE,112,1.1,-999.0,98,-99.99,,,0.00,Acu-Link.com,2013-09-24 16:59:00,
2013-09-24 13:14:00,69.6,69.0,29.87,SW,225,5.3,-999.0,98,-99.99,,,0.00,Acu-Link.com,2013-09-24 17:14:00,
2013-09-24 13:29:00,69.6,69.0,29.86,SW,225,2.2,-999.0,98,-99.99,,,0.00,Acu-Link.com,2013-09-24 17:29:00,
2013-09-24 13:45:00,70.0,69.4,29.85,SW,225,5.3,-999.0,98,-99.99,,,0.00,Acu-Link.com,2013-09-24 17:45:00,
2013-09-24 14:00:00,70.9,70.3,29.84,SW,225,4.2,-999.0,98,-99.99,,,0.00,Acu-Link.com,2013-09-24 18:00:00,
2013-09-24 14:15:00,69.6,69.0,29.83,ESE,112,2.7,-999.0,98,-99.99,,,0.00,Acu-Link.com,2013-09-24 18:15:00,
2013-09-24 14:30:00,71.2,70.6,29.82,South,180,0.0,-999.0,98,-99.99,,,0.00,Acu-Link.com,2013-09-24 18:30:00,
2013-09-24 14:45:00,71.4,70.8,29.82,NE,45,3.7,-999.0,98,-99.99,,,0.00,Acu-Link.com,2013-09-24 18:45:00,
2013-09-24 15:01:00,72.7,72.1,29.81,WSW,247,2.2,-999.0,98,-99.99,,,0.00,Acu-Link.com,2013-09-24 19:01:00,
2013-09-24 15:16:00,73.2,72.6,29.80,WSW,247,3.2,-999.0,98,-99.99,,,0.00,Acu-Link.com,2013-09-24 19:16:00,
2013-09-24 15:31:00,73.8,73.2,29.80,SW,225,5.3,-999.0,98,-99.99,,,0.00,Acu-Link.com,2013-09-24 19:31:00,
2013-09-24 15:47:00,74.7,74.1,29.79,SSW,202,1.1,-999.0,98,-99.99,,,0.00,Acu-Link.com,2013-09-24 19:47:00,
2013-09-24 16:02:00,74.3,73.7,29.79,SSW,202,0.0,-999.0,98,-99.99,,,0.00,Acu-Link.com,2013-09-24 20:02:00,
2013-09-24 16:17:00,74.8,74.2,29.79,SW,225,4.2,-999.0,98,-99.99,,,0.00,Acu-Link.com,2013-09-24 20:17:00,
2013-09-24 16:32:00,72.9,72.3,29.78,NW,315,1.1,-999.0,98,-99.99,,,0.00,Acu-Link.com,2013-09-24 20:32:00,
2013-09-24 16:48:00,73.4,72.8,29.79,North,0,0.0,-999.0,98,-99.99,,,0.00,Acu-Link.com,2013-09-24 20:48:00,
2013-09-24 17:03:00,72.9,72.3,29.78,NW,315,2.7,-999.0,98,-99.99,,,0.00,Acu-Link.com,2013-09-24 21:03:00,
2013-09-24 17:18:00,71.1,70.5,29.78,NW,315,0.0,-999.0,98,-99.99,,,0.00,Acu-Link.com,2013-09-24 21:18:00,
2013-09-24 17:33:00,71.1,70.5,29.78,NNW,337,1.1,-999.0,98,-99.99,,,0.00,Acu-Link.com,2013-09-24 21:33:00,
2013-09-24 17:48:00,70.2,69.6,29.78,East,90,1.7,-999.0,98,-99.99,,,0.00,Acu-Link.com,2013-09-24 21:48:00,
2013-09-24 18:04:00,69.4,68.8,29.78,NW,315,0.0,-999.0,98,-99.99,,,0.00,Acu-Link.com,2013-09-24 22:04:00,
2013-09-24 18:19:00,68.5,67.9,29.78,West,270,0.0,-999.0,98,-99.99,,,0.00,Acu-Link.com,2013-09-24 22:19:00,
2013-09-24 18:34:00,67.3,66.7,29.78,West,270,0.0,-999.0,98,-99.99,,,0.00,Acu-Link.com,2013-09-24 22:34:00,
2013-09-24 18:49:00,65.8,65.2,29.78,West,270,0.0,-999.0,98,-99.99,,,0.00,Acu-Link.com,2013-09-24 22:49:00,
2013-09-24 19:05:00,64.4,63.8,29.77,West,270,0.0,-999.0,98,-99.99,,,0.00,Acu-Link.com,2013-09-24 23:05:00,
2013-09-24 19:20:00,63.3,62.7,29.78,West,270,0.0,-999.0,98,-99.99,,,0.00,Acu-Link.com,2013-09-24 23:20:00,
2013-09-24 19:35:00,61.9,61.3,29.78,West,270,0.0,-999.0,98,-99.99,,,0.00,Acu-Link.com,2013-09-24 23:35:00,
2013-09-24 19:50:00,61.0,60.4,29.78,West,270,0.0,-999.0,98,-99.99,,,0.00,Acu-Link.com,2013-09-24 23:50:00,
2013-09-24 20:06:00,60.1,59.5,29.78,West,270,0.0,-999.0,98,-99.99,,,0.00,Acu-Link.com,2013-09-25 00:06:00,
2013-09-24 20:21:00,59.2,58.6,29.78,West,270,0.0,-999.0,98,-99.99,,,0.00,Acu-Link.com,2013-09-25 00:21:00,
2013-09-24 20:36:00,58.6,58.0,29.78,West,270,0.0,-999.0,98,-99.99,,,0.00,Acu-Link.com,2013-09-25 00:36:00,
2013-09-24 20:51:00,58.1,57.5,29.78,West,270,0.0,-999.0,98,-99.99,,,0.00,Acu-Link.com,2013-09-25 00:51:00,
2013-09-24 21:06:00,57.4,56.8,29.78,West,270,0.0,-999.0,98,-99.99,,,0.00,Acu-Link.com,2013-09-25 01:06:00,
2013-09-24 21:22:00,57.0,56.4,29.79,West,270,0.0,-999.0,98,-99.99,,,0.00,Acu-Link.com,2013-09-25 01:22:00,
2013-09-24 21:37:00,56.5,55.9,29.79,West,270,0.0,-999.0,98,-99.99,,,0.00,Acu-Link.com,2013-09-25 01:37:00,
2013-09-24 21:52:00,55.9,55.3,29.79,West,270,0.0,-999.0,98,-99.99,,,0.00,Acu-Link.com,2013-09-25 01:52:00,
2013-09-24 22:08:00,55.6,55.0,29.78,West,270,0.0,-999.0,98,-99.99,,,0.00,Acu-Link.com,2013-09-25 02:08:00,
2013-09-24 22:23:00,55.6,55.0,29.78,West,270,0.0,-999.0,98,-99.99,,,0.00,Acu-Link.com,2013-09-25 02:23:00,
2013-09-24 22:38:00,55.4,54.8,29.79,West,270,0.0,-999.0,98,-99.99,,,0.00,Acu-Link.com,2013-09-25 02:38:00,
2013-09-24 22:53:00,55.0,54.4,29.79,West,270,0.0,-999.0,98,-99.99,,,0.00,Acu-Link.com,2013-09-25 02:53:00,
2013-09-24 23:09:00,54.7,54.1,29.79,West,270,0.0,-999.0,98,-99.99,,,0.00,Acu-Link.com,2013-09-25 03:09:00,
2013-09-24 23:24:00,54.5,53.9,29.79,West,270,0.0,-999.0,98,-99.99,,,0.00,Acu-Link.com,2013-09-25 03:24:00,
2013-09-24 23:39:00,54.5,53.9,29.79,West,270,0.0,-999.0,98,-99.99,,,0.00,Acu-Link.com,2013-09-25 03:39:00,
2013-09-24 23:54:00,54.5,53.9,29.80,West,270,0.0,-999.0,98,-99.99,,,0.00,Acu-Link.com,2013-09-25 03:54:00,